Rechercher aéroport 
image banner adimage banner ad
image banner ad

EKTB - Torshavn/Bodanes

Situé à Torshavn, Faroe Islands

ICAO - EKTB, IATA -

Données fournies par Airmate  

Information générale

Coordonnées: N62°1'18" W6°45'27"
Élévation : 68 feet MSL.
Variation magnétique : -8.2° East
Voir autres Aéroports à (unassigned)

Données opérationnelles

Accessible au public
Heure actuelle UTC:
Heure actuelle locale:
Météo à : EKVG - Vagar ( 27 km )
METAR: EKVG 211720Z AUTO 01031KT 9999 -RA BKN020/// 02/M02 Q0982
TAF: TAF EKVG 211405Z 2115/2121 02035G45KT 7000 -SHRASN SCT012 BKN020 TEMPO 2115/2121 2000 SHSNRA BKN008CB
Voir NOTAMs / SUP AIP / TFR affectant cet aéroport [VIEW]
Fréquences de communication: [VIEW]

Pistes:

Coordonnées de l'aéroport

Adresse: Torshavn Faroe Islands

Vue satellite de EKTB